Location: Newark
(48.1500°N, 13.1167°E)
Time: 11:37:49
(UTC+00:00)

N. Korean satellite - Pass Details

Date: 27 September 2021
Orbit: 450 x 495 km, 97.3° (Epoch: 23 October)

Event Time Altitude Azimuth Distance (km) Brightness Sun altitude
Rises 04:08:17 0° 18° (NNE) 2,532 10.6 -9.6°
Reaches altitude 10° 04:10:24 10° 25° (NNE) 1,657 9.7 -9.3°
Maximum altitude 04:13:50 45° 99° (E) 670 7.9 -8.7°
Drops below altitude 10° 04:17:17 10° 173° (S) 1,667 9.3 -8.1°
Sets 04:19:25 0° 180° (S) 2,549 10.2 -7.8°
